Temperature
21 21 20 20 20 20 20 19 19 19 19 19 19 19 19 19 19 18 18 18 18 18 18 18 18 17 17 17 17 17 17 17 17 17 17 17 17 16 16 16 16 16 16
21 21 20 20 20 20 19 19 19 19 19 19 19 19 19 18 18 18 18 18 18 18 18 18 17 17 17 17 17 17 17 17 16 16 16 16 16 16 16 16 16 16 15
21 21 20 20 20 19 19 19 19 19 19 19 19 18 18 18 18 18 18 18 18 18 18 18 17 17 17 17 16 16 16 16 16 16 16 16 16 16 16 15 15 15 15
21 21 20 20 20 20 19 19 19 19 19 19 18 18 18 18 18 18 18 18 17 17 17 17 17 17 17 17 16 16 16 16 16 16 15 15 15 15 15 15 15 15 15
21 20 20 20 20 20 19 19 19 19 19 18 18 18 18 18 18 18 17 17 17 17 17 17 17 17 16 16 16 16 16 16 15 15 15 15 15 14 14 14 14 14 14
21 20 20 20 20 19 19 19 19 19 18 18 18 18 18 18 18 17 17 17 17 17 17 17 16 16 16 16 16 16 15 15 15 15 14 14 14 14 14 14 14 14 14
21 20 20 20 19 19 19 19 19 18 18 18 18 18 18 17 17 17 17 17 17 17 17 16 16 16 16 16 16 15 15 15 15 14 14 14 14 14 14 13 13 13 13
20 20 19 19 19 19 19 18 18 18 18 18 18 17 17 17 17 17 17 17 16 16 16 16 16 16 16 15 15 15 15 15 14 14 14 14 14 14 13 13 13 13 13
20 19 19 19 19 18 18 18 18 18 18 17 17 17 17 17 17 17 16 16 16 16 16 16 15 15 15 15 15 15 15 15 14 14 14 14 14 13 13 13 13 13 13
19 19 19 19 19 18 18 18 18 17 17 17 17 17 17 17 16 16 16 16 16 16 15 15 15 15 15 15 15 14 14 14 14 14 14 13 13 13 13 13 13 12 12
19 19 18 18 18 18 18 17 17 17 17 17 17 17 17 16 16 16 16 15 15 15 15 15 15 15 14 14 14 14 14 14 14 13 13 13 13 13 13 13 12 12 12
18 18 18 18 18 17 17 17 17 17 16 16 16 16 16 16 16 16 15 15 15 15 15 15 14 14 14 14 14 14 14 13 13 13 13 13 13 12 12 12 12 12 12
17 17 17 17 17 17 17 17 16 16 16 16 16 16 16 16 15 15 15 15 15 14 14 14 14 14 13 13 13 13 13 13 13 12 12 12 12 12 12 12 12 12 11
17 17 17 17 16 16 16 16 16 15 15 15 15 15 15 15 15 15 15 14 14 14 14 14 13 13 13 13 13 13 12 12 12 12 11 11 11 11 11 11 11 11 11
16 16 16 16 16 16 16 15 15 15 15 15 15 15 15 15 15 15 14 14 14 14 13 13 13 13 13 12 12 12 12 12 11 11 11 11 11 11 11 11 10 10 10
16 16 15 15 15 15 15 15 15 15 15 15 15 15 15 14 14 14 14 13 13 13 13 13 13 12 12 12 11 11 11 11 11 11 11 10 10 10 10 10 10 10 10
15 15 15 15 15 15 15 15 15 14 14 14 14 14 14 14 14 13 13 13 13 13 12 12 12 12 11 11 11 11 11 11 10 10 10 10 10 10 10 10 10 10 10
15 15 15 14 14 14 14 14 14 14 14 14 14 14 13 13 13 13 13 12 12 12 12 12 11 11 11 11 10 10 10 10 10 10 10 10 9 9 9 9 9 9 9
14 14 14 14 14 14 14 14 13 13 13 13 13 13 13 13 13 12 12 12 12 12 11 11 11 11 11 10 10 10 10 10 10 9 9 9 9 9 9 9 9 9 8
14 14 14 14 13 13 13 13 13 13 13 13 13 13 12 12 12 12 12 11 11 11 11 11 11 10 10 10 10 10 9 9 9 9 9 9 9 9 9 8 8 8 8
13 13 13 13 13 13 13 13 13 13 12 12 12 12 12 12 12 11 11 11 11 11 10 10 10 10 10 10 9 9 9 9 9 9 9 8 8 8 8 8 8 8 7
13 13 13 13 12 12 12 12 12 12 12 12 12 12 11 11 11 11 11 11 10 10 10 10 10 9 9 9 9 9 9 9 8 8 8 8 8 8 8 8 7 7 7
12 12 12 12 12 12 12 12 12 12 12 12 12 11 11 11 11 11 10 10 10 10 10 9 9 9 9 9 9 9 8 8 8 8 8 8 8 7 7 7 7 7 7
12 12 12 12 12 11 11 11 11 11 11 11 11 11 11 11 11 10 10 10 10 10 9 9 9 9 9 9 8 8 8 8 8 7 7 7 7 7 7 7 6 6 6
11 11 11 11 11 11 11 11 11 11 11 11 11 11 10 10 10 10 10 10 10 10 9 9 9 9 8 8 8 8 8 8 7 7 7 7 7 7 6 6 6 6 6
11 11 11 11 11 11 10 11 11 11 11 11 10 10 10 10 10 10 10 9 9 9 9 9 8 8 8 8 8 8 7 7 7 7 7 7 6 6 6 6 6 5 5
Wind_Speed
8 6 6 5 5 5 4 5 4 4 4 4 3 3 3 3 3 2 2 2 2 2 2 2 2 2 1 1 1 1 2 2 3 3 2 1 1 2 2 2 3 3 4
7 6 5 4 4 4 4 4 4 4 3 3 3 3 3 3 3 3 3 2 3 3 3 2 3 2 2 2 1 2 2 2 3 3 2 2 2 2 2 2 1 2 4
7 6 6 5 4 4 4 4 4 3 3 2 2 3 3 3 3 3 4 3 3 4 3 3 3 2 2 2 2 2 2 2 1 2 3 2 2 2 1 2 2 2 2
7 7 6 6 6 6 5 4 4 3 3 3 3 3 3 3 3 3 3 3 3 3 3 4 4 4 4 4 3 3 2 1 1 1 2 2 2 2 1 2 2 2 2
7 7 7 7 6 5 4 4 3 4 4 3 3 3 3 3 3 3 3 3 3 3 3 3 4 5 5 5 3 3 3 2 1 1 2 2 2 2 2 2 2 3 3
6 6 6 5 5 5 4 4 3 4 4 3 4 4 3 3 4 4 4 3 3 4 4 4 3 3 4 4 4 4 4 4 3 2 2 3 4 3 2 2 2 1 3
6 5 4 5 5 5 5 5 5 4 4 4 3 3 4 5 5 5 5 4 4 4 4 3 3 2 2 2 2 2 2 3 4 5 4 5 4 4 3 3 3 3 4
4 3 3 4 4 4 5 5 5 4 4 4 4 4 4 5 5 6 5 4 3 4 4 4 4 3 2 2 2 1 2 2 3 3 4 5 5 4 4 4 4 3 3
3 3 4 4 4 4 4 5 4 4 4 4 3 4 4 4 5 5 4 2 3 4 4 4 4 3 3 4 3 2 1 3 3 2 2 3 3 3 2 0 1 1 3
4 4 4 4 4 4 4 4 3 3 4 4 3 3 3 3 3 3 3 2 3 3 3 3 3 4 4 5 4 3 3 3 2 2 2 2 2 2 2 3 3 2 2
4 3 2 3 4 4 4 3 3 3 3 3 3 3 3 3 3 3 4 3 3 3 3 3 3 5 5 6 5 4 5 4 2 2 1 2 2 1 1 1 3 3 3
2 3 3 3 3 3 3 2 2 3 3 3 3 3 3 3 3 4 5 5 4 3 4 3 4 5 5 6 5 4 3 2 1 1 1 1 2 2 2 2 2 3 3
2 3 3 3 2 2 3 3 3 3 3 3 3 3 3 3 3 4 4 4 3 3 3 4 4 4 4 4 4 2 2 2 2 1 2 2 3 3 2 2 2 2 2
2 3 3 2 2 1 2 3 3 3 3 3 4 4 4 3 3 2 2 3 2 1 1 1 1 2 2 1 1 1 1 2 2 2 2 2 2 1 1 1 1 1 2
1 2 2 2 2 2 2 2 3 4 5 5 5 5 4 4 5 5 4 3 3 2 1 1 1 0 0 1 1 1 0 1 1 1 1 2 2 2 2 1 1 1 1
1 2 2 2 2 2 2 1 1 2 2 4 5 5 5 5 4 4 4 3 3 4 3 1 1 1 2 2 2 1 1 1 2 2 2 2 2 2 2 2 1 1 2
3 3 2 2 3 3 3 3 2 2 2 0 2 3 3 3 3 3 3 3 4 5 2 2 2 2 2 2 2 2 2 2 2 1 2 2 1 1 1 1 1 1 1
3 3 2 3 3 3 3 3 3 3 1 2 2 1 1 2 3 3 5 5 2 1 1 2 2 2 2 2 2 2 1 1 1 1 1 1 1 1 1 1 1 1 1
3 2 2 2 2 2 2 2 2 3 2 1 1 2 2 2 3 3 4 2 2 2 2 1 2 2 2 2 2 2 2 2 1 1 1 1 1 1 1 1 1 1 1
2 2 1 1 2 1 1 1 2 2 2 2 2 1 1 1 1 1 1 1 1 2 2 2 2 1 1 1 1 1 1 1 1 1 1 2 2 1 1 1 1 1 1
1 1 0 0 1 1 1 2 2 2 2 2 2 3 4 3 3 3 2 2 2 2 2 2 1 1 1 1 1 1 1 1 1 2 2 2 1 1 1 1 2 1 1
0 0 0 0 0 0 1 1 2 1 2 2 1 1 3 2 2 2 2 2 1 1 2 2 2 2 2 2 2 2 1 1 1 1 1 1 1 1 1 1 1 1 0
1 1 2 1 0 1 1 1 1 1 1 2 2 2 2 1 1 1 2 2 1 1 1 1 1 1 1 1 2 3 3 3 2 2 1 1 1 1 1 1 0 0 0
2 1 1 1 1 1 1 1 1 1 2 2 1 2 2 2 2 2 2 1 1 0 1 1 1 1 0 0 1 1 1 1 1 1 2 2 1 1 1 1 0 1 1
1 1 2 2 1 2 2 1 1 0 1 2 2 1 1 1 1 2 2 1 1 1 1 1 1 1 1 1 1 1 1 1 1 1 1 1 1 1 1 1 1 1 1
1 1 2 2 2 2 2 1 1 1 1 2 2 1 1 1 1 2 1 2 2 1 2 2 2 2 2 2 2 2 2 2 2 2 2 1 1 1 1 1 1 1 1
Wind_Direction
187 188 188 189 190 183 187 196 194 193 192 196 197 191 191 191 187 177 195 187 191 225 232 204 227 227 220 227 215 204 199 178 220 274 285 289 294 294 300 281 268 255 255
184 178 181 184 189 192 199 203 196 196 199 201 195 189 187 189 191 193 209 209 206 222 236 225 237 225 223 233 211 216 220 202 188 247 283 292 274 263 260 263 274 279 257
176 175 178 185 194 205 209 202 192 189 199 207 194 194 201 198 198 204 203 209 214 223 228 226 232 211 223 232 225 225 230 224 189 202 265 273 277 270 282 290 286 272 276
175 177 182 192 202 210 209 199 195 192 196 208 208 213 216 215 211 207 200 208 217 226 228 226 223 215 217 213 215 218 212 201 206 213 260 275 266 270 254 275 295 293 286
172 182 192 193 194 197 199 196 196 198 206 207 210 223 226 224 224 205 207 213 215 232 241 237 234 230 226 216 211 200 192 191 209 228 259 281 281 272 261 258 277 293 285
173 188 192 185 186 190 197 196 200 206 208 205 217 224 228 238 231 212 206 216 216 221 235 245 246 244 232 213 196 188 182 189 204 218 244 250 262 254 253 255 261 296 293
177 186 190 186 190 196 200 198 207 210 207 211 218 218 232 244 235 223 214 209 214 221 227 232 246 249 210 201 184 175 218 223 203 200 220 239 242 238 230 248 240 240 253
163 173 186 196 202 202 197 203 208 205 207 214 223 226 234 248 235 224 218 214 221 229 225 219 225 234 221 192 193 201 247 269 247 230 224 237 238 234 218 226 234 257 275
163 176 185 191 196 196 202 211 210 202 214 217 223 224 231 253 237 224 209 210 230 244 240 231 220 224 215 167 170 193 261 297 294 275 243 256 254 254 225 181 284 288 284
195 201 198 192 193 203 213 215 208 203 212 213 224 227 224 242 242 219 187 197 229 251 256 248 224 212 208 185 186 193 215 257 279 317 323 321 302 287 253 202 199 219 254
205 198 202 203 204 206 209 210 206 209 215 219 225 237 230 232 233 206 182 191 214 232 246 248 241 220 218 213 207 212 223 226 233 241 275 307 316 306 288 251 217 210 230
185 189 204 212 214 213 204 212 209 201 213 225 228 246 252 244 230 227 215 215 213 215 234 242 240 227 228 226 225 228 218 203 208 211 233 271 274 277 280 279 263 245 234
176 202 214 217 216 203 194 206 216 213 219 231 230 240 255 256 247 238 224 225 231 228 235 239 241 229 222 227 237 218 179 171 169 194 237 256 258 259 270 296 318 321 310
192 218 214 215 225 223 208 206 209 217 221 226 228 235 246 247 245 244 240 233 243 258 258 252 222 197 194 212 230 204 196 193 187 210 234 260 272 278 283 278 285 313 332
207 227 222 217 214 221 224 221 219 225 215 213 221 218 219 239 243 226 212 215 212 208 159 74 50 76 341 329 328 311 251 190 214 250 239 259 272 283 276 266 247 279 279
222 252 236 223 218 211 217 275 278 246 246 222 218 213 226 233 223 201 205 195 172 149 128 181 221 224 221 223 230 254 251 233 238 228 224 232 251 265 283 293 278 251 258
217 229 232 220 214 212 212 211 238 325 8 293 241 226 220 210 177 169 154 137 144 145 143 195 214 220 224 228 227 223 240 244 232 216 228 234 230 246 267 280 286 284 273
230 224 226 225 218 212 218 222 213 206 246 318 345 326 224 179 159 140 123 109 112 164 195 203 221 221 216 217 223 226 231 229 218 219 228 238 236 245 274 273 264 250 258
239 239 231 226 220 210 210 220 219 205 193 199 12 10 18 89 103 116 129 132 176 205 228 226 216 211 213 215 219 219 215 215 211 212 229 246 246 239 257 260 257 262 251
246 264 250 217 210 197 196 211 220 205 180 179 182 168 122 88 102 162 224 214 194 217 222 217 218 210 203 204 214 207 200 202 204 224 242 244 243 231 232 241 240 245 254
264 278 302 200 188 185 191 213 216 203 193 191 194 186 166 171 187 203 216 225 216 218 222 223 223 224 216 197 184 180 181 206 219 229 237 245 240 239 230 226 237 235 248
219 61 123 179 160 239 174 202 205 196 190 168 150 134 158 149 175 205 220 226 234 236 218 208 211 217 211 204 201 199 197 214 233 228 226 219 195 190 201 233 254 251 233
59 63 48 40 78 86 90 113 165 158 152 144 139 141 161 174 188 207 222 231 230 237 233 194 176 195 222 210 205 195 194 209 222 214 201 194 178 174 159 170 210 255 279
63 75 67 70 76 85 81 72 94 114 125 128 137 163 181 194 196 196 199 192 177 153 73 93 152 166 108 189 202 189 187 199 198 189 175 177 180 177 163 164 229 270 264
58 91 82 71 81 88 86 72 59 119 137 150 160 165 176 173 170 171 169 153 133 106 67 72 113 137 138 142 141 137 143 125 119 139 166 183 190 203 215 236 243 276 291
43 87 88 85 83 91 99 85 60 81 111 121 130 134 133 137 135 128 127 116 108 93 79 82 83 97 94 103 107 102 95 83 86 99 120 143 168 205 213 241 251 260 274
Height
1515 1516 1518 1519 1521 1522 1523 1524 1524 1525 1525 1525 1525 1525 1525 1525 1525 1524 1524 1523 1523 1523 1522 1522 1521 1521 1521 1520 1520 1520 1520 1520 1519 1518 1518 1517 1516 1516 1515 1514 1514 1513 1512
1513 1515 1516 1518 1519 1520 1521 1521 1522 1522 1523 1523 1523 1523 1523 1523 1523 1523 1522 1522 1521 1520 1520 1520 1519 1519 1518 1518 1517 1517 1517 1517 1517 1515 1515 1514 1514 1513 1512 1511 1510 1509 1509
1511 1513 1514 1515 1517 1517 1518 1519 1520 1520 1521 1521 1521 1521 1521 1521 1520 1520 1520 1519 1519 1518 1518 1517 1516 1516 1515 1514 1514 1514 1514 1514 1514 1513 1512 1511 1511 1510 1509 1508 1507 1506 1505
1509 1510 1511 1513 1514 1515 1516 1517 1517 1517 1518 1518 1519 1519 1518 1518 1518 1517 1517 1516 1516 1515 1515 1514 1513 1512 1511 1511 1511 1511 1511 1511 1510 1510 1509 1508 1507 1507 1506 1505 1503 1503 1502
1507 1508 1509 1510 1511 1512 1513 1514 1514 1515 1515 1516 1516 1516 1516 1515 1515 1514 1514 1513 1513 1512 1511 1511 1510 1509 1508 1508 1507 1507 1507 1507 1507 1506 1505 1504 1503 1503 1502 1501 1500 1499 1498
1504 1505 1506 1507 1509 1509 1510 1511 1511 1512 1512 1512 1512 1512 1512 1512 1511 1511 1511 1510 1509 1509 1508 1507 1506 1505 1504 1504 1503 1503 1503 1503 1502 1502 1501 1501 1500 1500 1499 1498 1497 1496 1495
1501 1502 1503 1504 1505 1506 1507 1507 1507 1508 1508 1508 1508 1508 1508 1508 1508 1508 1507 1507 1506 1505 1504 1503 1502 1502 1501 1500 1499 1499 1500 1499 1499 1499 1498 1498 1497 1497 1496 1495 1494 1493 1492
1499 1499 1500 1501 1502 1502 1503 1504 1504 1504 1504 1504 1504 1504 1504 1504 1504 1504 1503 1503 1502 1501 1501 1500 1499 1499 1498 1497 1496 1495 1495 1495 1495 1495 1495 1495 1494 1494 1493 1492 1491 1490 1489
1496 1497 1497 1498 1499 1499 1500 1500 1500 1500 1500 1500 1501 1500 1500 1500 1500 1500 1499 1498 1498 1497 1497 1496 1496 1495 1495 1494 1493 1492 1491 1491 1492 1492 1492 1491 1491 1490 1490 1489 1487 1486 1484
1493 1494 1494 1495 1496 1496 1496 1496 1496 1497 1496 1497 1496 1496 1496 1496 1496 1496 1495 1494 1493 1493 1492 1492 1492 1491 1491 1491 1490 1489 1488 1488 1488 1488 1487 1487 1486 1486 1485 1485 1484 1483 1481
1490 1490 1491 1492 1492 1492 1493 1493 1493 1493 1493 1493 1492 1492 1492 1492 1492 1492 1491 1490 1489 1489 1488 1487 1487 1488 1487 1487 1486 1486 1485 1485 1484 1483 1483 1482 1482 1482 1481 1481 1480 1479 1478
1486 1487 1487 1488 1489 1489 1489 1489 1489 1489 1489 1488 1488 1487 1487 1487 1487 1487 1487 1486 1486 1485 1484 1484 1483 1483 1483 1483 1482 1481 1481 1481 1480 1479 1479 1478 1478 1477 1477 1477 1476 1475 1475
1483 1483 1484 1484 1485 1485 1485 1485 1485 1485 1485 1484 1483 1483 1483 1483 1482 1483 1482 1482 1482 1481 1480 1480 1479 1479 1479 1478 1478 1478 1477 1477 1476 1476 1475 1474 1474 1474 1474 1473 1472 1471 1471
1479 1479 1480 1480 1480 1481 1481 1481 1481 1480 1480 1479 1479 1478 1478 1478 1477 1477 1477 1477 1477 1477 1477 1476 1476 1475 1475 1474 1474 1474 1473 1473 1472 1472 1472 1472 1471 1471 1470 1469 1468 1468 1467
1476 1476 1475 1476 1476 1476 1476 1476 1476 1476 1476 1475 1474 1474 1473 1473 1473 1473 1473 1473 1472 1473 1472 1472 1471 1471 1471 1470 1470 1470 1470 1469 1469 1469 1469 1468 1468 1467 1467 1466 1466 1465 1464
1472 1472 1472 1471 1471 1471 1472 1472 1472 1472 1471 1471 1471 1471 1470 1470 1470 1470 1470 1469 1469 1469 1469 1468 1467 1467 1467 1467 1467 1467 1466 1466 1466 1466 1466 1465 1464 1464 1463 1463 1462 1462 1460
1469 1469 1468 1468 1468 1467 1467 1467 1467 1467 1467 1467 1466 1466 1466 1467 1466 1466 1466 1466 1466 1466 1465 1465 1464 1464 1464 1464 1464 1464 1464 1464 1464 1463 1463 1462 1462 1461 1461 1460 1459 1458 1457
1466 1466 1465 1464 1464 1464 1464 1464 1463 1463 1463 1463 1463 1463 1463 1463 1463 1463 1463 1462 1462 1461 1461 1461 1461 1461 1461 1461 1461 1461 1461 1461 1461 1460 1460 1460 1459 1459 1458 1457 1456 1456 1455
1463 1463 1462 1461 1461 1460 1460 1460 1460 1459 1459 1459 1459 1459 1459 1460 1460 1460 1460 1459 1458 1458 1458 1458 1458 1458 1458 1457 1457 1458 1458 1457 1457 1457 1457 1457 1456 1456 1455 1454 1454 1453 1452
1459 1459 1459 1458 1458 1457 1457 1457 1457 1456 1456 1457 1456 1457 1458 1457 1457 1457 1457 1456 1456 1456 1456 1456 1456 1456 1455 1455 1455 1455 1455 1455 1454 1454 1454 1454 1454 1453 1452 1452 1451 1450 1450
1456 1455 1455 1456 1455 1454 1454 1455 1455 1454 1454 1454 1454 1455 1455 1455 1455 1455 1455 1454 1454 1454 1454 1454 1454 1454 1454 1453 1453 1453 1453 1452 1452 1452 1452 1451 1451 1450 1450 1449 1449 1448 1447
1453 1453 1453 1453 1453 1453 1452 1453 1453 1453 1452 1452 1452 1453 1453 1453 1454 1454 1454 1453 1453 1453 1453 1453 1453 1453 1452 1452 1452 1451 1451 1450 1450 1449 1449 1449 1448 1448 1447 1446 1445 1445 1445
1451 1451 1451 1451 1451 1451 1451 1452 1452 1452 1452 1451 1452 1452 1452 1452 1453 1453 1453 1452 1452 1451 1451 1451 1451 1451 1451 1451 1450 1450 1449 1448 1448 1447 1446 1446 1446 1445 1444 1444 1443 1443 1442
1450 1450 1450 1450 1450 1451 1451 1451 1451 1451 1451 1451 1451 1451 1451 1451 1451 1451 1451 1451 1451 1450 1450 1450 1449 1449 1449 1449 1448 1448 1447 1446 1446 1445 1444 1444 1443 1443 1442 1442 1441 1441 1440
1448 1448 1449 1449 1450 1450 1451 1451 1451 1451 1451 1451 1451 1451 1450 1450 1450 1450 1450 1450 1450 1449 1449 1449 1448 1447 1447 1447 1446 1446 1446 1445 1444 1443 1442 1442 1441 1440 1439 1439 1439 1439 1438
1448 1447 1448 1449 1449 1450 1450 1450 1450 1450 1449 1449 1449 1450 1450 1449 1449 1449 1449 1449 1448 1448 1447 1447 1446 1446 1446 1445 1445 1444 1443 1442 1441 1440 1440 1439 1438 1438 1437 1437 1436 1436 1436